Showing default

OPS 9324 (IDSCS 11), 2651

Orbit data source: Space-Track

OPS 9324 (IDSCS 11), 2651 is a payload satellite owned by USAF SSD (US) in GEO that was launched on Wed, 18 Jan 1967 UTC via a TITAN IIIC launch vehicle from the Air Force Eastern Test Range (AFETR). Payload-class satellites include a variety of spacecraft equipped with specific instruments for various scientific and technological missions. These include communications satellites like Starlink; space stations such as the ISS; scientific satellites like the Hubble; Earth observation satellites from companies like Planet Labs, Umbra, and HawkEye 360; GPS; miniature CubeSats for education and research; and military/defense satellites.

Not visible in the next 10 days
Identifier
2651, 1967-003D
Orbit
GEO
Last TLE update
1 week ago
Origin
Manufacturer
Philco-Ford WDL
Mission
Non-operational Defense Communications
Bus & Motor
IDCSP, Unknown motor
Mass
45 kg wet, 45 kg dry
Launch date (UTC)
1967-01-18 (58 years ago)
Launch vehicle
TITAN IIIC
Launch site
Air Force Eastern Test Range (AFETR)
Object type
Payload
Rocket body
Debris
Shape & HBR
Ico Poly, 0.9 m
Radar Cross Section
0.926 m², Medium (>0.1 m² and < 1m²)

Expand to show TLE details & history

TLE from 1 week ago
0 OPS 9324 (IDSCS 11)
1 02651U 67003D   25173.46991542 -.00000057  00000-0  00000-0 0  9991
2 02651   7.5885  48.3734 0035646  86.4657  99.9913  1.08104650136856
Epoch: 2025-06-22T11:16Z
TLE epoch observation values (Epoch: 2025-06-22T11:16:40.692Z)
Latitude
-0.92022°
Longitude
155.11699°
Altitude
33,750.024 km
Speed
3.151 km/s
True Right ascension
15h 40m 43s
True Declination
0° 55' 09"
Sunlit
Object was in daylight at epoch
Visualization orbit readout
Latitude
6.397°
Longitude
25.06493°
Altitude
33,598.334 km
Speed
3.163 km/s
Apparent Right ascension
07h 12m 52s
Apparent Declination
0° 29' 31"
Sunlit
Object is in daylight
Visualization observer readout
Local Sidereal Time
20:56:37
Azimuth
36.85° NE
Elevation
-43.172°
Doppler factor
1
Orbital elements
Apogee altitude
33,868.485 km
Perigee altitude
33,582.578 km
Semi-major axis
40,103.669 km
Eccentricity
0.00356
Inclination
7.5885°
RAAN
48.3734°
Arg. of periapsis
86.4657°
True anomaly
Unknown
Mean anomaly
99.9913°
Eccentric anomaly
Unknown
Mean motion
0.27025 °/min
Orbital period
1,332.1 mins
BSTAR
0
Loading historical data...
2651 neighbors
Loading maneuver chart data...
Loading SW <> Apogee altitude chart data...
Loading historical data...
Loading historical data...
Loading historical data...
Loading historical data...
Loading historical data...
Loading historical data...
Loading historical data...

OPS 9324 (IDSCS 11) Visibility

Observer location: undefined°, undefined°

OPS 9324 (IDSCS 11) is likely not visible in the next few days
Span
Click to sort rows by Start time (UTC) header in descending order
Start Az.
Max El. time (UTC)
Max El. Az.
Max El.
End time (UTC)
End Az.
|